Zurück zum Katalog

STARLINK-32084

AktivKommunikationVLEO
NORAD 60347·PAYLOAD·🇺🇸 United States

Gestartet Aug 2, 2024 von Cape Canaveral Space Force Station

Loading…

Nächste Überflüge (nächste 24 Stunden)

TLE

AktuellSource: CelesTrak SupGP

Epoche: Sep 15, 2026, 03:14 UTC

1 60347C 24136U   26258.13520833 -.00015194  00000+0 -48849-3 0  2589
2 60347  53.1589 274.3379 0001335  87.6205 100.0208 15.31716265    17

Verfolge STARLINK-32084 in Echtzeit mit AllMySat

Download on the App Store